TimeCST,TemperatureF,Dew PointF,Humidity,Sea Level PressureIn,VisibilityMPH,Wind Direction,Wind SpeedMPH,Gust SpeedMPH,PrecipitationIn,Events,Conditions,WindDirDegrees,DateUTC
12:53 AM,62.1,48.9,62,30.14,10.0,NNE,13.8,-,N/A,,Clear,20,2012-12-29 06:53:00
1:53 AM,60.1,46.0,60,30.16,10.0,NNE,15.0,-,N/A,,Clear,20,2012-12-29 07:53:00
2:53 AM,57.0,46.0,67,30.20,10.0,North,18.4,25.3,N/A,,Clear,360,2012-12-29 08:53:00
3:53 AM,55.0,44.1,67,30.23,10.0,North,16.1,21.9,N/A,,Clear,10,2012-12-29 09:53:00
4:53 AM,53.1,42.1,66,30.26,10.0,North,16.1,-,N/A,,Clear,350,2012-12-29 10:53:00
5:53 AM,48.9,37.9,66,30.28,10.0,NNW,13.8,-,N/A,,Clear,340,2012-12-29 11:53:00
6:53 AM,46.9,36.0,66,30.31,10.0,NNW,16.1,-,N/A,,Clear,340,2012-12-29 12:53:00
7:53 AM,46.9,34.0,61,30.35,9.0,NNW,15.0,-,N/A,,Clear,340,2012-12-29 13:53:00
8:53 AM,48.0,33.1,56,30.38,9.0,NNW,18.4,24.2,N/A,,Partly Cloudy,340,2012-12-29 14:53:00
9:53 AM,52.0,35.1,53,30.39,9.0,North,16.1,24.2,N/A,,Clear,350,2012-12-29 15:53:00
10:53 AM,55.9,37.9,51,30.41,9.0,North,20.7,27.6,N/A,,Clear,350,2012-12-29 16:53:00
11:53 AM,57.0,37.9,49,30.41,10.0,North,23.0,28.8,N/A,,Mostly Cloudy,350,2012-12-29 17:53:00
12:53 PM,57.9,41.0,53,30.38,10.0,North,19.6,33.4,N/A,,Partly Cloudy,350,2012-12-29 18:53:00
1:53 PM,60.1,41.0,49,30.36,10.0,North,17.3,31.1,N/A,,Partly Cloudy,360,2012-12-29 19:53:00
2:53 PM,59.0,39.9,49,30.37,10.0,North,18.4,-,N/A,,Partly Cloudy,10,2012-12-29 20:53:00
3:53 PM,57.9,39.9,51,30.37,10.0,North,16.1,26.5,N/A,,Clear,10,2012-12-29 21:53:00
5:53 PM,54.0,41.0,62,30.39,10.0,North,10.4,-,N/A,,Clear,350,2012-12-29 23:53:00
6:53 PM,53.1,39.0,59,30.40,10.0,NNW,8.1,-,N/A,,Clear,340,2012-12-30 00:53:00
7:53 PM,52.0,30.0,43,30.43,10.0,NNW,10.4,-,N/A,,Clear,330,2012-12-30 01:53:00
8:53 PM,52.0,27.0,38,30.44,10.0,NW,10.4,-,N/A,,Clear,320,2012-12-30 02:53:00
9:53 PM,51.1,27.0,39,30.44,10.0,NW,9.2,-,N/A,,Clear,320,2012-12-30 03:53:00
10:53 PM,50.0,27.0,41,30.43,10.0,NW,6.9,-,N/A,,Clear,310,2012-12-30 04:53:00
11:53 PM,46.9,27.0,46,30.41,10.0,NW,6.9,-,N/A,,Clear,310,2012-12-30 05:53:00